{"data":{"norad_id":59506,"intl_designator":"2024-071Y","name":"STARLINK-31524","alt_names":[],"object_type":"PAYLOAD","status":"ACTIVE","operator":null,"country":"US","launch_date":"2024-04-13","launch_site_code":"AFETR","launch_vehicle":null,"mission":null,"orbit_class":"UNKNOWN","rcs_meters":null,"size_class":null,"mass_kg":null,"dimensions":null,"purposes":["comms"],"wikipedia_slug":null,"has_3d_model":false,"image_url":null,"decayed_at":null,"tle_current":{"epoch":"2026-05-24T17:37:33.341088Z","epoch_age_seconds":94181,"freshness":"FRESH","line1":"1 59506U 24071Y   26144.73441367  .00001619  00000+0  68327-4 0  9997","line2":"2 59506  43.0010 263.3442 0001266 265.1002  94.9705 15.27581224119912","mean_motion":15.27581224,"eccentricity":0.0001266,"inclination_deg":43.001,"raan_deg":263.3442,"arg_perigee_deg":265.1002,"mean_anomaly_deg":94.9705,"bstar":6.8327e-5,"rev_number":11991,"period_min":94.266673180843,"perigee_km":482.17680525001,"apogee_km":483.91405664153,"semimajor_km":6861.1824309458,"source":"CELESTRAK","updated_at":"2026-05-25T13:38:18.973619Z"}}}